Temperature
13 13 13 13 13 13 13 13 12 11 11 10 10 8 7 7 7 6 6 6 6 5 5 4 4 3 2 2 1 0 -1 -2 -3 -3 -3 -3 -3 -3 -3 -4 -4 -5 -5
13 12 12 12 12 12 12 11 11 10 10 9 8 7 6 6 6 6 5 5 5 4 4 3 3 2 1 1 0 -1 -1 -2 -4 -4 -4 -4 -4 -4 -5 -5 -5 -6 -6
12 11 11 11 11 11 11 10 10 9 9 7 6 5 5 5 5 5 4 4 4 3 3 2 2 1 1 0 -1 -1 -2 -3 -5 -6 -6 -6 -5 -5 -6 -6 -6 -6 -6
10 10 10 10 10 10 10 9 9 8 7 5 4 4 4 4 4 4 3 3 3 2 2 1 1 0 -0 -1 -2 -3 -4 -5 -6 -7 -7 -7 -7 -6 -7 -7 -7 -6 -6
9 9 9 9 9 9 8 7 6 5 4 4 3 3 3 3 3 2 2 2 2 1 1 0 0 -0 -1 -2 -4 -5 -6 -6 -7 -7 -8 -8 -8 -8 -8 -8 -8 -7 -6
7 7 8 7 7 6 6 5 4 3 3 2 2 2 2 1 1 1 1 1 1 0 0 -0 -1 -1 -2 -3 -5 -6 -6 -7 -8 -8 -9 -9 -9 -8 -8 -8 -8 -9 -9
5 5 5 4 4 4 3 3 2 2 1 1 1 1 1 1 1 1 0 -0 -0 -0 -1 -1 -1 -2 -3 -4 -5 -6 -7 -7 -8 -9 -9 -9 -9 -8 -9 -9 -9 -9 -9
3 2 2 2 2 2 2 1 1 1 0 1 1 1 0 0 -0 -0 -1 -1 -1 -1 -2 -2 -3 -3 -4 -5 -6 -7 -8 -8 -8 -8 -9 -9 -9 -9 -9 -9 -9 -9 -8
1 1 1 1 1 1 1 1 0 0 0 0 -0 -0 -0 -1 -1 -1 -1 -1 -2 -2 -2 -3 -4 -5 -5 -6 -8 -8 -9 -8 -8 -8 -8 -8 -8 -8 -8 -9 -8 -9 -9
0 0 0 1 1 1 1 0 0 0 -0 -0 -1 -1 -1 -1 -2 -2 -2 -2 -3 -3 -3 -4 -5 -6 -7 -8 -9 -9 -9 -9 -9 -8 -8 -7 -7 -7 -7 -8 -8 -9 -10
-0 0 0 1 1 1 0 0 -0 -1 -1 -1 -1 -2 -2 -2 -3 -3 -4 -4 -4 -4 -5 -5 -6 -7 -8 -9 -9 -9 -9 -9 -9 -9 -8 -7 -7 -7 -7 -7 -8 -8 -9
1 1 1 1 0 0 -0 -1 -1 -1 -1 -1 -2 -2 -2 -3 -3 -4 -4 -5 -6 -6 -6 -7 -7 -8 -9 -9 -9 -9 -9 -9 -9 -8 -8 -8 -7 -7 -7 -7 -7 -8 -8
1 1 0 -0 -0 -1 -1 -1 -1 -2 -2 -2 -2 -2 -3 -3 -4 -5 -5 -6 -7 -8 -8 -8 -9 -9 -9 -9 -9 -9 -9 -9 -9 -8 -8 -8 -8 -8 -7 -7 -7 -7 -7
1 0 -0 -0 -1 -1 -1 -2 -2 -2 -2 -2 -3 -3 -4 -4 -5 -6 -6 -7 -8 -8 -9 -9 -9 -9 -9 -9 -9 -9 -9 -9 -9 -9 -9 -8 -8 -8 -8 -8 -8 -8 -7
0 -0 -1 -1 -1 -1 -2 -2 -2 -2 -2 -3 -3 -4 -5 -5 -6 -7 -8 -9 -9 -10 -10 -9 -9 -9 -9 -8 -8 -8 -8 -9 -9 -9 -9 -8 -8 -8 -8 -8 -8 -8 -8
0 -0 -1 -1 -1 -1 -2 -2 -2 -3 -3 -4 -5 -5 -6 -7 -8 -8 -9 -9 -9 -10 -10 -9 -9 -9 -9 -9 -9 -9 -8 -8 -9 -8 -8 -8 -8 -8 -8 -8 -8 -8 -9
-0 -1 -1 -1 -2 -2 -2 -3 -3 -4 -5 -6 -6 -7 -7 -8 -9 -9 -9 -9 -9 -10 -10 -9 -10 -9 -9 -9 -9 -9 -9 -8 -8 -8 -8 -8 -8 -8 -8 -8 -8 -8 -8
-1 -1 -2 -2 -2 -3 -3 -4 -4 -5 -5 -6 -7 -7 -8 -8 -9 -9 -9 -9 -9 -9 -10 -10 -10 -10 -9 -9 -9 -9 -8 -8 -8 -8 -8 -8 -8 -8 -8 -8 -8 -8 -9
-2 -2 -2 -3 -3 -3 -4 -4 -5 -6 -6 -7 -7 -8 -8 -9 -9 -9 -10 -10 -10 -10 -10 -10 -10 -10 -9 -9 -9 -9 -8 -8 -8 -8 -8 -8 -8 -8 -8 -8 -8 -8 -9
-2 -2 -3 -3 -4 -4 -4 -5 -6 -6 -7 -8 -8 -8 -9 -9 -9 -9 -10 -10 -10 -10 -10 -10 -9 -9 -9 -9 -9 -8 -8 -8 -8 -8 -8 -8 -8 -8 -8 -8 -8 -8 -8
-2 -3 -3 -4 -4 -4 -5 -6 -6 -7 -8 -8 -9 -9 -10 -10 -10 -10 -10 -10 -10 -10 -10 -9 -9 -9 -9 -9 -9 -8 -8 -8 -8 -8 -8 -8 -7 -7 -7 -8 -8 -8 -8
-3 -3 -3 -4 -4 -5 -6 -7 -7 -8 -8 -9 -9 -10 -10 -10 -10 -10 -10 -10 -10 -10 -10 -9 -9 -9 -9 -9 -8 -8 -8 -8 -8 -8 -8 -7 -7 -7 -7 -8 -8 -8 -8
-3 -3 -4 -4 -5 -6 -7 -7 -8 -9 -9 -9 -10 -10 -10 -10 -10 -10 -10 -10 -9 -9 -9 -9 -9 -9 -9 -8 -8 -8 -8 -8 -8 -8 -8 -7 -7 -7 -7 -7 -8 -8 -8
-3 -4 -4 -5 -6 -7 -7 -8 -9 -9 -9 -10 -10 -10 -10 -10 -10 -10 -10 -9 -9 -9 -9 -9 -9 -9 -8 -8 -8 -8 -8 -8 -8 -8 -8 -7 -7 -7 -7 -8 -8 -8 -8
-4 -4 -5 -6 -7 -7 -8 -9 -9 -9 -10 -10 -10 -10 -10 -10 -10 -10 -9 -9 -9 -9 -9 -9 -9 -8 -8 -8 -8 -8 -8 -8 -8 -8 -7 -7 -7 -7 -7 -8 -8 -8 -8
-4 -5 -6 -6 -7 -8 -8 -9 -9 -10 -10 -10 -10 -10 -10 -10 -10 -9 -9 -9 -9 -8 -8 -8 -8 -8 -8 -8 -8 -8 -8 -8 -8 -8 -7 -7 -7 -7 -7 -8 -8 -8 -8
Wind_Speed
9 10 11 11 11 13 13 14 14 13 15 15 15 14 13 12 11 10 8 8 7 6 5 5 4 4 3 3 3 3 4 4 7 5 4 5 6 8 14 18 19 19 19
8 10 12 13 13 13 13 14 15 16 15 15 14 14 12 12 10 10 9 7 7 6 5 4 4 3 4 4 4 4 5 5 6 8 5 5 7 8 8 10 16 18 18
8 11 12 13 14 14 14 15 16 16 15 14 14 13 12 10 9 8 8 6 6 5 4 3 3 4 4 4 5 5 5 6 5 6 7 5 6 7 9 11 11 11 17
8 11 12 12 13 14 15 15 15 16 15 14 13 12 11 10 9 8 7 6 5 4 3 1 3 4 5 6 5 7 6 6 5 6 7 7 7 8 7 8 11 8 10
8 10 10 12 13 15 15 15 15 15 15 14 14 12 11 9 8 8 6 5 4 3 1 1 2 4 7 6 6 5 5 4 5 5 7 9 10 8 9 8 13 12 10
11 12 13 15 16 17 16 16 16 16 15 15 13 12 9 7 10 9 6 4 3 1 1 3 4 5 7 9 10 12 11 8 6 5 8 11 12 11 10 11 12 14 11
14 14 15 17 18 17 18 18 17 15 14 13 11 10 9 9 9 7 6 3 2 2 2 3 3 4 6 5 9 13 12 15 15 12 12 12 13 13 13 14 13 14 16
15 15 15 17 18 18 17 16 14 12 11 10 9 8 7 7 8 6 6 4 2 2 1 1 3 5 6 8 7 7 7 8 12 11 10 12 13 12 12 14 14 13 13
15 15 15 16 17 16 16 14 11 10 9 8 6 7 6 6 7 5 5 2 0 2 3 3 5 5 12 14 9 7 8 9 15 20 21 20 23 24 19 11 9 11 16
14 13 13 14 15 14 13 12 9 8 8 7 6 5 5 4 5 4 4 2 2 3 3 4 8 10 14 15 9 8 10 10 10 11 12 15 14 16 19 10 7 10 12
12 12 12 12 13 12 11 9 8 7 7 6 5 3 2 3 3 2 2 2 2 3 4 4 5 14 16 17 15 8 12 13 6 7 9 10 9 8 8 6 6 9 12
11 12 12 11 10 9 9 8 7 7 6 5 4 3 2 2 2 3 5 6 6 2 4 4 7 16 17 17 13 13 18 14 6 8 9 10 9 10 10 10 10 10 13
12 12 11 10 8 8 8 8 6 6 5 4 3 3 1 2 4 6 7 9 11 6 5 11 14 16 15 10 13 16 13 7 8 8 9 10 8 9 10 11 11 11 13
11 10 9 9 8 7 6 6 5 5 4 4 3 2 1 2 3 4 4 5 8 8 7 10 12 12 10 11 11 9 7 7 8 8 10 11 11 10 10 9 11 12 12
10 9 8 7 7 7 5 4 4 3 4 3 2 1 1 2 4 7 6 4 5 6 6 2 3 5 5 6 6 6 6 7 7 8 10 11 12 11 12 9 9 11 12
9 7 6 6 5 5 5 4 5 4 4 4 3 3 3 5 8 10 12 13 13 12 6 4 5 6 7 8 9 9 9 8 8 9 10 10 11 11 12 11 10 11 13
9 7 5 5 5 4 4 4 3 4 5 5 4 5 5 6 8 10 12 12 11 10 4 4 5 6 7 7 7 8 9 9 8 9 10 10 10 11 11 12 12 12 12
8 7 6 4 4 4 3 3 2 2 1 2 4 7 7 8 9 10 11 8 6 6 4 5 6 6 7 7 8 8 9 10 9 9 10 10 10 11 11 12 12 13 14
7 5 5 4 4 3 3 3 2 2 1 1 2 4 7 8 8 9 8 4 5 5 6 5 6 7 7 7 8 8 9 10 10 10 10 11 10 10 11 12 13 18 16
5 8 6 4 4 3 3 3 2 1 1 2 3 4 4 4 3 4 4 4 4 5 6 6 7 7 7 8 8 8 9 10 10 10 10 10 10 11 12 14 14 14 14
5 6 7 5 3 3 2 1 1 1 1 2 3 5 7 3 4 5 5 5 5 6 6 7 8 8 7 7 8 9 10 10 10 10 11 11 11 12 12 13 14 14 14
5 4 4 3 2 2 2 1 1 1 2 3 3 5 8 4 4 5 5 6 6 6 6 7 8 8 8 8 9 9 10 11 11 10 11 12 12 13 13 12 13 13 13
5 5 4 3 2 2 2 1 2 2 3 4 4 4 4 4 5 5 6 6 7 7 7 7 8 9 8 10 10 9 10 11 11 12 13 14 13 12 12 13 14 15 14
5 5 4 2 1 1 1 2 2 3 3 4 4 4 4 5 6 7 7 7 7 7 8 8 8 11 13 13 13 14 14 16 16 13 16 15 14 12 12 12 13 14 14
4 4 3 2 0 1 2 2 3 3 4 4 5 5 5 6 7 7 7 7 8 9 9 11 11 12 14 16 18 17 20 24 24 20 14 12 12 13 13 13 13 14 14
4 3 2 1 1 1 2 3 3 4 4 5 5 6 6 7 7 7 7 7 8 9 9 11 13 16 19 18 19 21 24 25 26 26 16 10 11 12 13 12 14 13 13
Wind_Direction
204 186 171 168 162 159 162 160 154 149 150 151 150 148 145 141 139 139 139 142 140 140 144 157 171 170 173 184 187 195 207 204 249 265 252 276 283 287 301 300 300 296 294
197 174 166 160 157 158 157 153 149 147 147 147 145 143 142 140 140 143 145 145 144 147 152 161 184 187 195 202 208 223 231 225 238 275 278 276 276 284 286 290 299 297 294
180 162 156 155 155 152 148 145 144 142 141 140 139 138 136 134 131 130 129 129 129 134 145 175 204 203 218 224 229 237 242 250 243 269 287 280 280 287 290 289 286 284 289
158 151 149 148 144 139 136 136 136 136 134 131 126 123 122 119 116 113 112 110 106 101 102 167 224 220 227 233 239 243 249 258 263 270 285 293 293 289 285 294 300 286 289
116 119 120 119 119 120 121 121 120 120 119 115 112 108 106 105 107 108 107 106 103 93 61 328 279 253 246 252 254 246 241 249 263 272 288 299 300 301 299 297 301 302 291
94 100 104 108 109 108 108 108 106 105 106 107 108 107 101 104 114 113 113 107 104 81 350 327 307 289 289 300 299 296 291 284 283 281 291 295 296 295 295 297 301 304 302
87 93 99 103 103 103 104 102 101 101 102 103 105 105 104 112 119 121 121 120 93 43 360 341 332 325 332 306 296 298 295 295 295 295 292 288 289 290 291 292 291 292 294
91 93 97 100 101 101 100 100 101 102 103 104 106 112 119 136 142 142 128 106 79 39 10 337 307 303 305 300 279 277 269 277 285 285 274 274 276 277 276 286 293 295 290
94 96 99 104 105 105 105 105 106 108 107 110 121 134 146 160 162 153 140 128 118 299 294 302 312 299 308 310 304 291 285 281 290 291 290 290 294 298 300 299 295 298 298
99 100 101 105 108 109 110 109 109 113 118 124 129 145 157 172 185 180 165 176 249 286 295 298 315 316 311 311 303 293 292 289 285 290 294 296 294 292 296 286 275 287 294
102 99 98 100 104 107 106 110 118 120 120 117 114 109 133 185 213 248 265 194 253 298 308 307 303 316 313 312 312 303 297 304 307 307 303 299 296 291 289 277 261 267 281
99 98 98 100 104 110 111 112 112 114 110 106 105 90 54 22 355 332 335 336 332 307 301 291 294 310 314 318 319 311 311 321 322 309 302 300 299 299 297 291 282 270 264
101 102 101 97 96 103 109 108 99 98 106 109 115 111 60 21 0 0 347 335 327 319 292 302 308 315 322 323 315 316 323 320 307 303 301 298 293 289 293 294 292 285 278
104 100 99 98 92 83 85 95 105 112 116 119 118 106 32 348 322 304 295 302 309 304 294 300 315 324 325 319 316 315 307 296 301 300 301 300 301 298 296 296 299 304 301
100 97 92 90 93 88 83 93 111 124 142 137 145 159 196 286 293 316 321 294 285 285 312 329 336 325 322 316 311 305 304 308 307 302 301 302 302 301 299 300 294 298 294
108 98 95 95 92 91 90 71 71 86 89 108 165 203 243 278 310 327 326 325 326 329 343 334 320 317 315 317 317 316 313 307 304 303 300 297 298 299 299 299 296 295 294
112 109 101 99 98 95 94 96 75 41 49 43 22 351 336 334 337 334 330 335 339 342 335 309 304 305 305 304 303 303 304 302 301 299 296 296 296 296 297 299 300 298 296
104 113 112 107 106 106 107 110 112 100 33 350 355 354 349 344 340 338 341 347 336 337 312 304 302 302 302 301 302 302 302 304 303 300 297 295 295 296 297 297 297 297 298
111 110 108 107 105 104 103 101 95 88 67 332 321 333 344 341 344 347 352 336 313 314 311 305 299 297 297 297 297 296 295 297 297 298 296 295 295 296 296 295 296 298 300
116 126 121 114 106 99 94 93 88 68 11 333 320 312 313 333 337 331 328 307 304 305 305 303 300 295 295 295 295 296 297 296 297 296 295 295 295 294 294 296 296 298 299
113 120 119 109 104 104 99 89 66 353 325 314 304 312 330 348 324 313 313 309 304 304 301 301 299 296 292 290 291 292 292 293 293 293 294 295 297 297 295 293 294 296 299
122 119 119 116 111 109 105 71 17 336 321 315 306 313 333 331 307 304 305 305 303 296 293 294 293 290 288 289 291 292 292 292 292 293 294 296 296 295 294 297 301 305 308
123 119 112 104 87 66 67 20 344 321 310 306 307 311 317 313 309 303 300 302 303 299 296 291 290 291 287 287 285 281 283 285 287 289 292 294 295 297 300 304 306 309 311
123 122 121 117 100 56 359 328 320 314 311 306 307 308 306 304 302 301 298 296 297 292 293 291 287 287 289 295 295 289 283 282 284 285 285 290 299 305 307 307 308 308 312
123 124 126 129 126 315 311 307 306 305 308 311 310 307 304 301 297 294 293 293 294 294 294 296 293 293 294 297 297 295 294 298 300 302 299 302 306 307 308 308 309 313 314
129 134 142 161 235 283 291 296 297 301 301 300 296 294 294 293 292 292 294 294 297 299 299 300 296 298 300 301 299 300 304 308 310 313 314 309 309 310 313 314 313 315 315
Height
1415 1415 1416 1419 1424 1429 1433 1438 1442 1446 1450 1455 1460 1465 1470 1474 1479 1483 1486 1488 1490 1490 1490 1489 1489 1488 1486 1485 1483 1481 1479 1476 1471 1466 1466 1463 1460 1456 1452 1448 1444 1440 1436
1409 1410 1412 1415 1419 1424 1428 1433 1437 1441 1446 1451 1456 1461 1467 1471 1475 1479 1482 1485 1485 1485 1485 1485 1484 1483 1481 1480 1478 1475 1473 1470 1465 1460 1457 1455 1452 1449 1444 1440 1436 1433 1429
1404 1405 1407 1411 1415 1419 1424 1429 1433 1437 1442 1447 1453 1459 1464 1469 1473 1477 1480 1481 1481 1481 1481 1480 1479 1478 1476 1474 1472 1469 1467 1464 1460 1455 1450 1448 1444 1441 1436 1432 1428 1425 1421
1399 1401 1403 1407 1411 1416 1421 1425 1430 1434 1439 1445 1452 1458 1464 1468 1472 1475 1477 1478 1477 1476 1476 1475 1474 1473 1471 1469 1466 1463 1460 1457 1454 1450 1445 1441 1437 1434 1430 1425 1419 1416 1412
1396 1398 1401 1405 1409 1413 1418 1423 1428 1433 1439 1445 1451 1457 1463 1467 1471 1473 1474 1474 1473 1472 1471 1470 1469 1468 1465 1463 1460 1457 1455 1451 1448 1444 1440 1435 1431 1428 1424 1419 1413 1407 1403
1395 1397 1400 1403 1407 1411 1416 1422 1427 1433 1439 1446 1452 1459 1463 1467 1469 1471 1471 1470 1469 1468 1467 1466 1464 1462 1460 1457 1455 1452 1450 1447 1443 1440 1435 1431 1426 1422 1418 1413 1408 1402 1395
1396 1397 1400 1403 1407 1412 1418 1423 1430 1436 1443 1449 1455 1459 1463 1465 1467 1468 1467 1466 1465 1464 1463 1461 1459 1456 1454 1451 1448 1446 1443 1441 1439 1436 1430 1425 1421 1417 1413 1408 1404 1398 1392
1398 1400 1403 1407 1411 1416 1422 1428 1435 1440 1446 1451 1455 1458 1461 1463 1464 1464 1464 1463 1462 1461 1458 1455 1453 1450 1448 1445 1442 1439 1437 1435 1432 1428 1424 1419 1416 1412 1409 1404 1399 1392 1385
1403 1406 1409 1413 1417 1423 1428 1434 1439 1444 1448 1452 1455 1458 1460 1461 1462 1462 1461 1460 1459 1457 1454 1451 1448 1445 1442 1439 1437 1434 1431 1428 1426 1422 1418 1415 1411 1408 1404 1398 1392 1386 1376
1409 1412 1417 1420 1424 1428 1432 1437 1442 1446 1450 1453 1456 1458 1459 1460 1460 1459 1458 1456 1454 1452 1449 1446 1443 1440 1437 1435 1433 1429 1425 1421 1418 1414 1411 1407 1404 1400 1397 1393 1387 1380 1372
1415 1418 1421 1425 1428 1432 1437 1441 1445 1448 1452 1454 1456 1458 1458 1458 1457 1456 1454 1452 1449 1446 1444 1441 1438 1435 1432 1430 1428 1424 1420 1417 1412 1408 1404 1400 1397 1393 1390 1386 1382 1376 1368
1421 1424 1427 1431 1434 1438 1442 1445 1448 1451 1453 1455 1456 1456 1456 1456 1454 1453 1451 1448 1445 1442 1439 1436 1433 1431 1428 1425 1422 1418 1415 1412 1407 1402 1398 1394 1390 1386 1383 1379 1374 1369 1363
1428 1431 1434 1437 1440 1443 1446 1448 1451 1452 1454 1454 1455 1455 1454 1453 1451 1449 1447 1444 1441 1438 1435 1432 1429 1426 1423 1420 1417 1414 1410 1406 1402 1398 1393 1389 1385 1380 1376 1371 1366 1360 1354
1434 1437 1439 1442 1444 1447 1449 1451 1452 1453 1453 1453 1453 1452 1451 1449 1448 1445 1443 1440 1437 1434 1431 1428 1425 1422 1419 1415 1412 1409 1406 1402 1398 1394 1389 1384 1380 1375 1370 1365 1358 1351 1343
1440 1442 1444 1446 1448 1449 1450 1452 1452 1452 1452 1452 1451 1450 1448 1446 1444 1442 1439 1436 1433 1430 1427 1423 1420 1417 1414 1411 1408 1405 1402 1398 1394 1390 1385 1380 1375 1369 1364 1359 1352 1345 1338
1444 1446 1447 1449 1450 1451 1452 1452 1451 1451 1450 1449 1448 1446 1444 1443 1440 1438 1435 1433 1430 1427 1423 1419 1416 1413 1410 1406 1403 1400 1397 1394 1390 1386 1381 1376 1371 1365 1358 1353 1347 1340 1332
1448 1449 1450 1451 1451 1452 1452 1451 1450 1449 1448 1447 1445 1443 1441 1439 1437 1434 1431 1429 1426 1423 1419 1416 1413 1410 1407 1403 1400 1397 1393 1390 1386 1382 1377 1372 1367 1360 1354 1347 1341 1335 1327
1450 1451 1451 1452 1452 1451 1451 1450 1449 1447 1446 1444 1442 1440 1438 1436 1433 1430 1428 1425 1422 1419 1416 1413 1410 1407 1404 1400 1397 1394 1390 1386 1383 1378 1374 1369 1363 1356 1350 1343 1337 1330 1323
1451 1452 1452 1451 1451 1450 1449 1448 1446 1445 1443 1441 1439 1437 1435 1432 1430 1427 1424 1422 1418 1416 1413 1410 1407 1404 1401 1398 1394 1391 1387 1383 1379 1374 1370 1365 1359 1353 1346 1339 1333 1326 1319
1451 1451 1451 1451 1450 1449 1447 1446 1444 1442 1440 1438 1436 1434 1431 1429 1426 1424 1421 1419 1416 1413 1410 1408 1405 1402 1398 1395 1391 1388 1384 1380 1375 1371 1366 1361 1355 1349 1342 1336 1329 1322 1315
1451 1451 1450 1449 1448 1447 1445 1443 1441 1439 1437 1435 1433 1430 1428 1425 1423 1421 1418 1416 1413 1410 1408 1405 1402 1399 1396 1392 1388 1384 1380 1376 1372 1367 1362 1357 1351 1345 1339 1332 1326 1319 1312
1450 1449 1449 1447 1446 1444 1442 1440 1438 1436 1434 1432 1429 1427 1425 1422 1420 1418 1415 1413 1411 1408 1405 1402 1399 1396 1393 1389 1385 1381 1377 1373 1369 1364 1359 1354 1348 1342 1335 1329 1323 1317 1310
1449 1448 1447 1445 1443 1441 1439 1437 1435 1433 1431 1428 1426 1424 1422 1419 1417 1415 1413 1410 1408 1405 1403 1400 1397 1394 1390 1387 1383 1378 1374 1370 1366 1361 1356 1350 1344 1339 1333 1327 1321 1314 1307
1447 1446 1444 1442 1441 1439 1436 1434 1432 1430 1428 1425 1423 1421 1419 1417 1414 1412 1410 1407 1405 1403 1400 1397 1394 1390 1387 1384 1380 1376 1372 1367 1363 1358 1354 1349 1343 1337 1331 1325 1318 1312 1305
1445 1443 1442 1440 1438 1436 1433 1431 1429 1427 1424 1422 1420 1418 1416 1414 1412 1409 1407 1405 1402 1400 1397 1394 1391 1387 1384 1380 1376 1372 1369 1365 1361 1357 1352 1347 1341 1335 1329 1322 1316 1310 1303
1442 1441 1439 1437 1435 1433 1430 1428 1426 1424 1422 1419 1417 1415 1413 1411 1409 1406 1404 1402 1399 1397 1394 1391 1388 1385 1381 1377 1373 1369 1365 1361 1358 1354 1349 1344 1338 1332 1326 1320 1314 1307 1301